Weather History for Franklin, VA

Change the Weather History Date:

Monday, May 21, 2012

  Actual Average (KSFQ) Record (KSFQ)
Temperature  
Mean Temperature 74 °F -  
Max Temperature 82 °F 78 °F 93 °F (2004)
Min Temperature 66 °F 58 °F 40 °F (1950)
Cooling Degree Days 9    
Growing Degree Days 24 (Base 50)    
Moisture  
Dew Point 68 °F    
Average Humidity 86    
Maximum Humidity 100    
Minimum Humidity 58    
Precipitation  
Precipitation 0.00 in - - ()
Sea Level Pressure  
Sea Level Pressure 29.96 in    
Wind  
Wind Speed 3 mph (SE)    
Max Wind Speed 12 mph    
Max Gust Speed -    
Visibility 10 miles    
Events      
Averages and records for this station are not official NWS values.
T = Trace of Precipitation, MM = Missing Value Source: NWS Daily Summary

Daily Weather History Graph

Daily Weather History Graph

Search for Another Location

Airport:

Trip Planner

Search our weather history database for the weather conditions in past years. The results will help you decide how hot, cold, wet, or windy it might be!

Date:

Astronomy

May. 21, 2012 Rise Set
Actual Time 5:55 AM EDT 8:13 PM EDT
Civil Twilight 5:26 AM EDT 8:42 PM EDT
Nautical Twilight 4:50 AM EDT 9:18 PM EDT
Astronomical Twilight 4:10 AM EDT 9:58 PM EDT
Moon 6:17 AM EDT (5/21) 9:01 PM EDT (5/21)
Length of Visible Light 15h 16m
Length of Day
14h 17m
New Moon, 0% of the Moon is Illuminated
May 21
New Moon
May 28
First Quarter
Jun 4
Full
Jun 11
Last Quarter
Jun 19
New

Hourly Weather History & Observations

Time (EDT) Temp. Heat Index Dew Point Humidity Pressure Visibility Wind Dir Wind Speed Gust Speed Precip Events Conditions
12:15 AM 66.2 °F - 66.2 °F 100% 30.00 in 3.0 mi West 3.5 mph - N/A   Overcast
12:55 AM 66.2 °F - 66.2 °F 100% 30.00 in 10.0 mi Calm Calm - N/A   Overcast
1:15 AM 66.2 °F - 66.2 °F 100% 29.99 in 10.0 mi Calm Calm - N/A   Overcast
1:55 AM 66.2 °F - 66.2 °F 100% 29.99 in 10.0 mi Calm Calm - N/A   Overcast
2:15 AM 66.2 °F - 66.2 °F 100% 30.00 in 10.0 mi South 3.5 mph - N/A   Overcast
2:55 AM 66.2 °F - 66.2 °F 100% 29.99 in 10.0 mi Calm Calm - N/A   Overcast
3:15 AM 66.2 °F - 66.2 °F 100% 29.99 in 10.0 mi South 3.5 mph - N/A   Overcast
3:55 AM 66.2 °F - 66.2 °F 100% 29.99 in 10.0 mi Calm Calm - N/A   Overcast
4:15 AM 66.2 °F - 66.2 °F 100% 29.99 in 3.0 mi Calm Calm - N/A   Overcast
4:55 AM 66.2 °F - 66.2 °F 100% 30.00 in 10.0 mi Calm Calm - N/A   Overcast
5:15 AM 66.2 °F - 66.2 °F 100% 30.00 in 7.0 mi Calm Calm - N/A   Overcast
5:35 AM 66.2 °F - 66.2 °F 100% 30.01 in - Calm Calm - N/A   Unknown
5:55 AM 66.2 °F - 66.2 °F 100% 30.01 in 10.0 mi Calm Calm - N/A   Overcast
6:15 AM 66.2 °F - 66.2 °F 100% 30.02 in 10.0 mi Calm Calm - N/A   Overcast
6:55 AM 66.2 °F - 66.2 °F 100% 30.02 in 7.0 mi SW 4.6 mph - N/A   Overcast
7:15 AM 68.0 °F - 68.0 °F 100% 30.02 in 10.0 mi Calm Calm - N/A   Overcast
7:35 AM 68.0 °F - 68.0 °F 100% 30.02 in - Calm Calm - N/A   Unknown
7:55 AM 69.8 °F - 69.8 °F 100% 30.02 in 10.0 mi West 5.8 mph - N/A   Overcast
8:15 AM 69.8 °F - 69.8 °F 100% 30.01 in 10.0 mi West 3.5 mph - N/A   Mostly Cloudy
8:35 AM 69.8 °F - 69.8 °F 100% 30.01 in - Calm Calm - N/A   Unknown
8:55 AM 71.6 °F - 69.8 °F 94% 30.01 in 10.0 mi WSW 3.5 mph - N/A   Overcast
9:15 AM 71.6 °F - 69.8 °F 94% 30.01 in 10.0 mi Calm Calm - N/A   Overcast
9:55 AM 71.6 °F - 68.0 °F 88% 30.01 in 10.0 mi South 3.5 mph - N/A   Overcast
10:15 AM 73.4 °F - 69.8 °F 88% 30.01 in 10.0 mi Calm Calm - N/A   Overcast
10:35 AM 73.4 °F - 69.8 °F 88% 30.01 in - SE 3.5 mph - N/A   Unknown
10:55 AM 71.6 °F - 69.8 °F 94% 30.01 in 10.0 mi ESE 4.6 mph - N/A   Overcast
11:15 AM 73.4 °F - 69.8 °F 88% 30.01 in 10.0 mi SE 8.1 mph - N/A   Overcast
11:35 AM 73.4 °F - 69.8 °F 88% 30.01 in - SE 4.6 mph - N/A   Unknown
11:55 AM 73.4 °F - 69.8 °F 88% 30.00 in 10.0 mi SE 5.8 mph - N/A   Overcast
12:15 PM 75.2 °F - 69.8 °F 83% 30.00 in 10.0 mi ESE 5.8 mph - N/A   Overcast
12:35 PM 75.2 °F - 68.0 °F 78% 30.00 in - SSE 4.6 mph - N/A   Unknown
12:55 PM 78.8 °F - 68.0 °F 69% 29.98 in 10.0 mi East 5.8 mph - N/A   Scattered Clouds
1:15 PM 78.8 °F - 69.8 °F 74% 29.98 in 10.0 mi South 5.8 mph - N/A   Scattered Clouds
1:55 PM 80.6 °F 82.7 °F 66.2 °F 61% 29.97 in 10.0 mi SSE 6.9 mph - N/A   Scattered Clouds
2:15 PM 80.6 °F 82.7 °F 66.2 °F 61% 29.96 in 10.0 mi SE 8.1 mph - N/A   Scattered Clouds
2:35 PM 80.6 °F 82.7 °F 66.2 °F 61% 29.95 in - SSE 5.8 mph - N/A   Unknown
2:55 PM 80.6 °F 82.7 °F 66.2 °F 61% 29.94 in 10.0 mi SE 5.8 mph - N/A   Scattered Clouds
3:15 PM 78.8 °F - 64.4 °F 61% 29.94 in 10.0 mi SSE 6.9 mph - N/A   Scattered Clouds
3:35 PM 80.6 °F 82.3 °F 64.4 °F 58% 29.93 in - ESE 3.5 mph - N/A   Unknown
3:55 PM 82.4 °F 84.6 °F 66.2 °F 58% 29.93 in 10.0 mi SSE 3.5 mph - N/A   Scattered Clouds
4:15 PM 80.6 °F 82.3 °F 64.4 °F 58% 29.92 in 10.0 mi SE 3.5 mph - N/A   Mostly Cloudy
4:35 PM 80.6 °F 82.3 °F 64.4 °F 58% 29.91 in - East 6.9 mph - N/A   Unknown
4:55 PM 78.8 °F - 69.8 °F 74% 29.91 in 10.0 mi East 11.5 mph - N/A   Mostly Cloudy
5:15 PM 77.0 °F - 69.8 °F 78% 29.91 in 10.0 mi East 9.2 mph - N/A   Mostly Cloudy
5:35 PM 75.2 °F - 69.8 °F 83% 29.90 in - East 6.9 mph - N/A   Unknown
5:55 PM 75.2 °F - 69.8 °F 83% 29.90 in 10.0 mi East 8.1 mph - N/A   Scattered Clouds
6:15 PM 77.0 °F - 69.8 °F 78% 29.89 in 10.0 mi East 9.2 mph - N/A   Scattered Clouds
6:35 PM 78.8 °F - 69.8 °F 74% 29.90 in - SE 10.4 mph - N/A   Unknown
6:55 PM 73.4 °F - 68.0 °F 83% 29.90 in 10.0 mi SE 5.8 mph - N/A   Overcast
7:15 PM 73.4 °F - 68.0 °F 83% 29.90 in 10.0 mi ESE 8.1 mph - N/A   Overcast
7:35 PM 73.4 °F - 68.0 °F 83% 29.89 in - SE 8.1 mph - N/A   Unknown
7:55 PM 73.4 °F - 66.2 °F 78% 29.90 in 10.0 mi East 5.8 mph - N/A   Scattered Clouds
8:15 PM 71.6 °F - 66.2 °F 83% 29.91 in 10.0 mi ESE 3.5 mph - N/A   Mostly Cloudy
8:35 PM 71.6 °F - 66.2 °F 83% 29.90 in - SE 3.5 mph - N/A   Unknown
8:55 PM 71.6 °F - 66.2 °F 83% 29.90 in 10.0 mi SE 3.5 mph - N/A   Overcast
9:15 PM 71.6 °F - 68.0 °F 88% 29.91 in 10.0 mi Calm Calm - N/A   Mostly Cloudy
9:55 PM 69.8 °F - 68.0 °F 94% 29.92 in 10.0 mi Calm Calm - N/A   Scattered Clouds
10:15 PM 69.8 °F - 68.0 °F 94% 29.92 in 10.0 mi Calm Calm - N/A   Scattered Clouds
10:55 PM 68.0 °F - 68.0 °F 100% 29.92 in 10.0 mi Calm Calm - N/A   Clear
11:15 PM 68.0 °F - 68.0 °F 100% 29.92 in 10.0 mi ESE 3.5 mph - N/A   Scattered Clouds
11:55 PM 66.2 °F - 66.2 °F 100% 29.91 in 10.0 mi Calm Calm - N/A   Clear